Date,TemperatureHighF,TemperatureAvgF,TemperatureLowF,DewpointHighF,DewpointAvgF,DewpointLowF,HumidityHigh,HumidityAvg,HumidityLow,PressureMaxIn,PressureMinIn,WindSpeedMaxMPH,WindSpeedAvgMPH,GustSpeedMaxMPH,PrecipitationSumIn
2014-1-1,41,33,24,24,20,14,68,57,44,30.07,29.87,26,7,26,0.00
2014-1-2,40,30,20,28,20,12,77,67,52,30.02,29.59,24,3,24,0.00
2014-1-3,70,37,25,51,25,16,91,62,22,30.00,29.39,45,15,45,0.02
2014-1-4,49,12,6,43,6,1,85,78,42,30.28,30.07,26,14,26,0.00
2014-1-5,13,1,-5,0,-8,-14,78,67,51,30.56,30.28,26,10,26,0.00
2014-1-6,20,9,-5,13,1,-12,78,71,60,30.41,30.11,8,2,8,0.00
2014-1-7,33,26,20,25,18,11,83,71,58,30.11,30.01,10,2,10,0.00
2014-1-8,37,31,25,28,24,21,84,74,63,30.01,29.80,22,3,22,0.00
2014-1-9,37,31,26,27,20,12,81,64,47,29.83,29.72,35,5,35,0.00
2014-1-10,39,34,26,23,20,15,75,58,45,29.94,29.70,39,10,39,0.00
2014-1-11,49,38,30,34,25,17,88,62,46,29.93,29.46,46,14,46,0.20
2014-1-12,36,34,29,24,18,15,76,51,43,29.94,29.50,44,18,44,0.00
2014-1-13,45,39,26,28,24,17,91,57,42,30.28,29.89,45,23,45,0.00
2014-1-14,47,33,24,34,25,21,91,73,47,30.44,30.28,21,4,23,0.04
2014-1-15,47,38,30,24,21,17,73,51,34,30.32,30.21,38,12,39,0.00
2014-1-16,50,37,28,29,20,16,65,51,40,30.39,30.28,26,6,27,0.00
2014-1-17,50,32,20,27,19,13,74,59,38,30.29,30.19,11,4,11,0.00
2014-1-18,50,31,18,28,20,11,78,62,41,30.31,30.10,12,3,12,0.00
2014-1-19,51,37,26,28,21,16,70,54,38,30.24,30.02,25,6,25,0.00
2014-1-20,47,31,21,26,18,11,69,58,42,30.43,30.23,19,6,20,0.00
2014-1-21,50,31,19,28,19,12,81,61,39,30.34,30.23,10,3,10,0.00
2014-1-22,37,30,22,29,23,18,89,77,56,30.39,30.17,16,4,18,0.07
2014-1-23,38,23,12,28,17,7,90,79,62,30.46,30.37,10,3,10,0.02
2014-1-24,43,26,15,29,18,11,87,75,51,30.43,30.33,8,2,8,0.02
2014-1-25,47,30,16,29,20,11,85,69,45,30.35,30.11,10,2,10,0.00
2014-1-26,35,26,17,30,17,6,90,69,49,30.29,30.05,30,8,30,0.00
2014-1-27,30,17,7,16,6,0,79,64,41,30.30,30.21,19,6,19,0.00
2014-1-28,34,16,1,15,5,-6,76,63,43,30.30,30.00,10,2,12,0.00
2014-1-29,40,32,24,31,22,14,85,68,56,30.01,29.57,43,8,43,0.01
2014-1-30,26,12,8,20,5,1,82,75,65,29.93,29.66,31,14,31,0.00
2014-1-31,27,13,4,17,7,-1,84,76,60,30.00,29.80,27,5,27,0.00
2014-2-1,29,13,1,15,4,-6,82,70,51,30.10,30.00,16,7,16,0.00
2014-2-2,22,13,3,11,5,-2,79,72,56,30.06,29.90,9,2,10,0.00
2014-2-3,15,8,0,9,1,-8,81,74,64,30.17,29.90,26,12,26,0.00
2014-2-4,0,-5,-12,-7,-13,-18,76,67,53,30.40,30.17,0,0,0,0.00
2014-2-5,-1,-12,-17,-15,-21,-25,73,64,39,30.47,29.83,0,0,0,0.00
2014-2-6,6,-14,-26,-8,-25,-35,72,60,43,29.84,29.42,0,0,0,0.00
2014-2-7,11,-6,-19,-2,-14,-27,78,67,53,29.43,29.28,0,0,0,0.00
2014-2-8,7,4,-2,2,-3,-8,82,72,60,29.64,29.32,0,0,0,0.00
2014-2-9,18,5,-3,7,-2,-10,81,72,58,29.59,29.51,0,0,0,0.00
2014-2-10,27,13,6,12,5,0,78,73,50,29.61,29.47,0,0,0,0.02
2014-2-11,41,31,20,26,17,8,75,56,42,29.59,29.34,0,0,0,0.00
2014-2-12,48,39,19,33,25,8,73,57,44,29.54,29.14,0,0,0,0.02
2014-2-13,44,39,32,32,24,14,80,55,41,29.51,29.21,0,0,0,0.03
2014-2-14,44,35,26,32,25,15,86,67,51,29.53,29.26,0,0,0,0.02
2014-2-15,45,38,27,30,27,16,76,66,50,29.53,29.17,0,0,0,0.00
2014-2-16,68,36,28,45,22,9,86,57,20,29.50,29.05,0,0,0,0.02
2014-2-17,48,37,26,30,17,12,84,46,30,29.50,29.15,0,0,0,0.00
2014-2-18,47,36,28,25,19,13,64,50,40,29.50,29.14,0,0,0,0.00
2014-2-19,43,29,24,29,16,8,91,58,38,29.44,29.07,0,0,0,0.00
2014-2-20,37,28,19,22,15,8,71,59,45,29.54,29.30,0,0,0,0.00
2014-2-21,32,26,18,22,18,12,89,72,49,29.50,29.36,0,0,0,0.01
2014-2-22,30,16,11,16,9,5,85,73,52,29.56,29.49,0,0,0,0.00
2014-2-23,14,8,3,10,3,-2,85,79,70,29.61,29.53,0,0,0,0.00
2014-2-24,22,9,0,12,2,-5,82,72,59,29.76,29.53,0,0,0,0.01
2014-2-25,28,11,-4,8,-1,-12,85,60,37,29.86,29.65,0,0,0,0.00
2014-2-26,18,3,-9,5,-6,-16,82,68,53,29.74,29.44,0,0,0,0.00
2014-2-27,26,16,4,22,9,-3,90,75,59,29.44,29.16,0,0,0,0.00
2014-2-28,19,8,-4,14,2,-11,83,76,71,29.58,29.30,0,0,0,0.00
2014-3-1,-4,-8,-12,-10,-15,-20,77,72,65,29.60,29.56,0,0,0,0.00
2014-3-2,18,3,-13,4,-6,-20,75,65,46,29.58,29.37,0,0,0,0.00
2014-3-3,50,27,5,32,18,-1,89,71,47,29.43,29.32,0,0,0,0.15
2014-3-4,50,37,28,35,28,24,91,71,41,29.51,29.36,0,0,0,0.00
2014-3-5,49,40,31,33,28,22,74,63,47,29.51,29.27,0,0,0,0.00
2014-3-6,49,41,33,39,33,26,87,73,53,29.44,29.17,0,0,0,0.13
2014-3-7,46,39,33,37,29,24,88,69,49,29.73,29.44,0,0,0,0.04
2014-3-8,52,39,28,35,27,20,79,64,46,29.77,29.53,0,0,0,0.00
2014-3-9,60,48,39,38,31,25,70,52,42,29.53,29.44,0,0,0,0.00
2014-3-10,41,38,32,36,34,30,92,86,68,29.49,29.29,0,0,0,0.32
2014-3-11,50,35,27,35,27,22,92,72,45,29.87,29.49,0,0,0,0.01
2014-3-12,54,37,26,32,25,20,82,65,42,29.84,29.60,0,0,0,0.00
2014-3-13,50,38,28,30,24,20,77,57,32,29.60,29.45,0,0,0,0.00
2014-3-14,46,37,31,33,24,18,75,60,46,29.52,29.40,0,0,0,0.00
2014-3-15,47,43,37,25,22,17,57,43,30,29.81,29.74,0,0,0,0.00
2014-3-16,64,46,32,29,21,8,70,41,16,29.78,29.26,0,0,0,0.00
2014-3-17,44,36,30,30,25,17,90,68,36,29.48,29.01,0,0,0,0.00
2014-3-18,40,33,29,25,19,12,82,56,41,29.61,29.48,0,0,0,0.00
2014-3-19,52,35,22,23,17,12,68,50,24,29.60,29.41,0,0,0,0.00
2014-3-20,37,33,26,28,16,8,88,52,32,29.64,29.35,0,0,0,0.00
2014-3-21,29,22,17,22,13,9,83,70,54,29.76,29.64,0,0,0,0.00
2014-3-22,38,23,12,18,12,6,80,63,42,29.83,29.62,0,0,0,0.00
2014-3-23,41,29,21,28,19,12,85,67,31,29.70,29.57,0,0,0,0.00
2014-3-24,30,24,20,20,17,15,85,73,60,29.83,29.68,0,0,0,0.00
2014-3-25,62,35,19,32,22,13,81,60,28,29.74,29.12,0,0,0,0.00
2014-3-26,50,42,31,29,25,22,78,51,37,29.17,29.07,0,0,0,0.00
2014-3-27,39,32,26,33,26,22,88,80,68,29.39,29.15,0,0,0,0.00
2014-3-28,56,38,25,36,25,16,90,65,23,29.52,29.38,0,0,0,0.00
2014-3-29,46,40,35,37,31,27,89,70,49,29.40,29.28,0,0,0,0.13
2014-3-30,44,36,29,31,28,24,88,75,48,29.49,29.29,0,0,0,0.00
2014-3-31,49,36,26,34,27,23,90,72,45,29.54,29.39,0,0,0,0.02
2014-4-1,46,35,26,30,26,20,82,70,50,29.40,29.28,0,0,0,0.00
2014-4-2,53,37,28,33,26,20,86,66,38,29.46,29.30,0,0,0,0.00
2014-4-3,56,40,25,32,24,18,78,56,29,29.57,29.46,0,0,0,0.00
2014-4-4,59,42,32,33,24,18,80,52,23,29.47,29.31,0,0,0,0.01
2014-4-5,51,41,33,32,24,19,77,53,34,29.49,29.40,0,0,0,0.00
2014-4-6,52,42,35,30,25,20,66,50,32,29.66,29.44,0,0,0,0.00
2014-4-7,60,49,37,32,28,23,61,46,32,29.73,29.65,0,0,0,0.00
2014-4-8,73,52,37,39,30,26,73,48,21,29.72,29.48,0,0,0,0.00
2014-4-9,60,52,41,38,28,16,55,40,23,29.56,29.40,0,0,0,0.00
2014-4-10,64,46,34,24,19,12,56,37,15,29.58,29.52,0,0,0,0.00
2014-4-11,66,49,36,30,24,19,58,40,25,29.56,29.31,0,0,0,0.00
2014-4-12,48,36,25,34,26,18,84,68,50,29.66,29.40,0,0,0,0.00
2014-4-13,40,29,20,19,12,-2,82,55,18,29.83,29.66,0,0,0,0.00
2014-4-14,59,38,17,19,11,5,70,39,13,29.84,29.51,0,0,0,0.00
2014-4-16,45,39,35,26,24,22,64,56,45,29.54,29.51,0,0,0,0.00
2014-4-17,62,48,34,35,29,24,70,49,28,29.53,29.28,0,0,0,0.00
2014-4-18,48,43,34,39,17,11,90,37,24,29.53,29.31,0,0,0,0.04
2014-4-19,68,51,28,25,19,12,55,32,15,29.55,29.39,0,0,0,0.00
2014-4-20,59,53,45,26,18,11,46,27,17,29.74,29.67,0,0,0,0.00
2014-4-21,72,52,34,28,22,17,55,33,15,29.78,29.43,0,0,0,0.00
2014-4-22,55,48,42,39,28,21,84,51,31,29.43,29.13,0,0,0,0.49
2014-4-23,46,40,36,31,25,21,82,56,37,29.43,29.35,0,0,0,0.00
2014-4-24,56,43,34,41,34,28,89,71,41,29.43,29.34,0,0,0,0.02
2014-4-25,68,47,36,41,35,28,89,65,33,29.41,29.17,0,0,0,0.19
2014-4-26,46,40,34,38,35,31,91,83,71,29.23,29.12,0,0,0,0.20
2014-4-27,53,46,34,33,25,20,78,46,31,29.38,29.24,0,0,0,0.00
2014-4-28,49,41,35,27,22,20,68,48,33,29.84,29.37,0,0,0,0.00
2014-4-29,55,44,31,27,23,18,70,44,24,30.03,29.84,0,0,0,0.00
2014-4-30,64,49,32,33,23,16,59,38,17,30.05,29.84,0,0,0,0.00
2014-5-1,78,57,36,39,32,24,64,41,23,29.85,29.60,0,0,0,0.00
2014-5-2,72,58,46,42,36,30,78,47,23,29.60,29.46,0,0,0,0.00
2014-5-3,53,46,39,39,37,33,85,71,55,29.48,29.37,0,0,0,0.00
2014-5-4,60,46,37,45,37,32,92,73,44,29.44,29.33,0,0,0,0.03
2014-5-5,64,48,37,42,35,29,81,61,41,29.43,29.35,0,0,0,0.01
2014-5-6,47,41,35,32,29,26,73,62,48,29.51,29.39,0,0,0,0.00
2014-5-7,54,41,32,32,27,24,78,58,40,29.51,29.43,0,0,0,0.00
2014-5-8,67,46,27,36,28,20,86,55,25,29.50,29.30,0,0,0,0.00
2014-5-9,57,46,38,43,31,24,77,57,34,29.41,29.25,0,0,0,0.05
2014-5-10,51,45,36,33,28,24,64,52,38,29.61,29.40,0,0,0,0.00
2014-5-11,44,37,33,31,28,25,86,70,53,29.87,29.61,0,0,0,0.00
2014-5-12,56,42,29,30,21,14,81,49,20,29.94,29.86,0,0,0,0.00
2014-5-13,69,49,28,33,25,16,77,43,21,29.97,29.85,0,0,0,0.00
2014-5-14,71,56,34,36,31,21,62,39,23,29.91,29.77,0,0,0,0.00
2014-5-15,77,60,41,44,36,28,71,44,19,29.77,29.59,0,0,0,0.00
2014-5-16,70,55,45,44,40,36,85,58,36,29.72,29.58,0,0,0,0.01
2014-5-17,76,57,40,50,44,36,88,66,32,29.60,29.33,0,0,0,0.34
2014-5-18,59,50,44,50,42,37,85,75,52,29.40,29.29,0,0,0,0.30
2014-5-19,64,53,44,47,39,33,83,61,36,29.53,29.36,0,0,0,0.03
2014-5-20,78,56,38,45,36,19,77,50,15,29.60,29.53,0,0,0,0.00
2014-5-21,90,62,41,46,38,30,79,45,18,29.63,29.54,0,0,0,0.00
2014-5-22,88,65,47,49,41,33,70,44,21,29.67,29.58,0,0,0,0.00
2014-5-23,86,69,54,48,39,31,56,36,18,29.65,29.45,0,0,0,0.00
2014-5-24,74,63,54,52,44,34,73,50,32,29.59,29.49,0,0,0,0.04
2014-5-25,80,63,48,50,44,39,77,53,30,29.65,29.47,0,0,0,0.00
2014-5-26,76,63,52,45,41,37,63,46,29,29.60,29.48,0,0,0,0.00
2014-5-27,79,60,48,51,40,33,74,49,24,29.67,29.51,0,0,0,0.02
2014-5-28,78,61,47,51,46,41,88,61,35,29.53,29.32,0,0,0,0.00
2014-5-29,67,55,45,42,28,22,56,38,20,29.67,29.47,0,0,0,0.00
2014-5-30,88,62,45,41,30,21,50,33,11,29.70,29.52,0,0,0,0.00
2014-5-31,71,59,49,50,42,35,76,55,35,29.55,29.46,0,0,0,0.29
2014-6-1,67,55,46,50,44,40,86,68,44,29.63,29.53,0,0,0,0.41
2014-6-2,80,58,41,53,44,36,85,63,29,29.61,29.44,0,0,0,0.19
2014-6-3,73,61,50,49,42,37,72,51,27,29.52,29.38,0,0,0,0.00
2014-6-4,74,60,46,48,39,31,79,49,23,29.58,29.50,0,0,0,0.03
2014-6-5,75,58,46,46,39,32,70,51,25,29.62,29.48,0,0,0,0.00
2014-6-6,67,53,42,40,35,26,76,53,24,29.64,29.56,0,0,0,0.00
2014-6-7,72,57,42,45,36,29,75,49,23,29.64,29.58,0,0,0,0.00
2014-6-8,84,63,50,41,34,29,53,35,17,29.69,29.59,0,0,0,0.00
2014-6-9,79,62,43,43,36,30,71,40,21,29.59,29.42,0,0,0,0.00
2014-6-10,80,62,52,39,33,19,56,35,14,29.53,29.37,0,0,0,0.00
2014-6-11,67,55,43,42,38,34,77,54,33,29.64,29.53,0,0,0,0.00
2014-6-12,82,61,45,49,41,34,76,51,22,29.63,29.27,0,0,0,0.00
2014-6-13,69,57,48,50,42,34,78,59,33,29.44,29.26,0,0,0,0.03
2014-6-14,55,49,44,47,40,33,85,72,46,29.48,29.43,0,0,0,0.12
2014-6-15,72,54,39,48,40,34,84,64,33,29.47,29.27,0,0,0,0.22
2014-6-16,64,51,44,48,44,40,91,76,50,29.35,29.27,0,0,0,0.31
2014-6-17,57,48,43,44,40,33,92,75,48,29.48,29.30,0,0,0,0.26
2014-6-18,58,47,41,43,39,33,91,74,49,29.51,29.43,0,0,0,0.27
2014-6-19,71,56,45,52,47,41,93,73,47,29.56,29.47,0,0,0,0.29
2014-6-20,77,58,49,55,47,41,86,66,35,29.62,29.48,0,0,0,0.84
2014-6-21,80,60,48,50,43,32,90,58,22,29.61,29.52,0,0,0,0.00
2014-6-22,73,59,51,50,45,39,80,60,38,29.69,29.59,0,0,0,0.00
2014-6-23,86,62,44,55,46,39,88,60,26,29.70,29.62,0,0,0,0.00
2014-6-24,84,63,50,57,48,42,87,60,30,29.65,29.51,0,0,0,0.23
2014-6-25,81,64,52,59,53,48,89,70,38,29.58,29.45,0,0,0,0.06
2014-6-26,67,58,54,58,52,48,89,81,64,29.46,29.31,0,0,0,0.23
2014-6-27,72,60,52,56,50,45,90,73,43,29.42,29.33,0,0,0,0.20
2014-6-28,68,57,47,54,44,37,91,65,37,29.51,29.40,0,0,0,0.01
2014-6-29,70,58,46,44,39,34,71,50,29,29.58,29.49,0,0,0,0.00
2014-6-30,88,62,52,50,41,35,61,47,26,29.75,29.58,0,0,0,0.00
2014-7-1,94,68,51,53,45,35,73,48,18,29.79,29.68,0,0,0,0.00
2014-7-2,96,72,54,54,48,42,75,45,23,29.69,29.52,0,0,0,0.00
2014-7-3,89,72,59,62,52,47,68,51,28,29.59,29.49,0,0,0,0.18
2014-7-4,85,71,58,62,54,47,75,56,32,29.62,29.52,0,0,0,0.00
2014-7-5,90,73,58,59,49,40,73,46,23,29.69,29.56,0,0,0,0.00
2014-7-6,93,75,60,51,44,39,54,36,21,29.72,29.58,0,0,0,0.00
2014-7-7,81,71,60,53,48,39,63,45,32,29.75,29.61,0,0,0,0.00
2014-7-8,104,74,57,58,49,44,65,45,20,29.71,29.55,0,0,0,0.00
2014-7-9,91,75,60,56,50,45,64,42,25,29.58,29.45,0,0,0,0.00
2014-7-10,99,75,55,57,50,33,82,46,19,29.53,29.42,0,0,0,0.00
2014-7-11,82,72,61,54,48,35,71,45,25,29.68,29.50,0,0,0,0.00
2014-7-12,97,75,59,61,51,43,75,47,19,29.77,29.67,0,0,0,0.00
2014-7-13,96,77,62,53,46,41,54,36,17,29.80,29.69,0,0,0,0.00
2014-7-14,91,74,63,55,48,43,55,40,28,29.79,29.23,0,0,0,0.00
2014-7-15,71,70,70,48,48,47,45,44,44,29.61,29.58,0,0,0,0.00
2014-7-16,88,75,52,62,57,48,87,54,37,32.44,32.13,0,0,0,0.00
2014-7-17,96,75,56,63,52,34,77,49,22,32.44,32.24,0,0,0,0.00
2014-7-18,76,67,56,49,44,35,70,46,23,32.38,32.37,0,0,0,0.00
2014-7-19,86,68,58,52,45,40,61,45,25,32.38,32.06,0,0,0,0.00
2014-7-20,76,67,59,50,45,41,59,47,28,32.29,32.26,0,0,0,0.00
2014-7-21,80,77,74,60,58,56,60,52,47,32.43,32.43,0,0,0,0.01
2014-7-25,75,73,71,39,39,34,32,29,25,32.43,32.42,0,0,0,0.00
2014-8-1,79,74,69,50,45,38,48,36,24,29.97,29.93,0,0,0,0.00
2014-8-2,88,71,61,54,49,42,61,48,25,29.99,29.91,0,0,0,0.03
2014-8-3,73,61,55,56,50,46,73,66,53,29.98,29.92,0,0,0,0.00
2014-8-4,81,72,62,56,52,48,61,51,35,29.94,29.87,0,0,0,0.00
2014-8-5,90,71,58,57,52,45,81,54,25,29.91,29.82,0,0,0,0.00
2014-8-6,94,74,58,57,47,35,73,45,16,29.90,29.78,0,0,0,0.00
2014-8-7,95,74,55,54,45,31,69,41,12,29.90,29.76,0,0,0,0.00
2014-8-8,85,71,58,55,47,39,83,46,22,29.90,29.78,0,0,0,0.38
2014-8-9,90,69,54,58,51,45,83,57,25,30.01,29.87,0,0,0,0.00
2014-8-10,94,73,56,55,45,29,68,41,12,30.04,29.95,0,0,0,0.01
2014-8-11,100,78,62,51,42,36,47,30,15,30.05,29.90,0,0,0,0.00
2014-8-12,98,77,62,53,47,39,51,36,15,29.93,29.82,0,0,0,0.00
2014-8-13,93,74,60,57,52,40,74,50,22,29.91,29.77,0,0,0,0.00
2014-8-14,83,69,59,61,56,50,86,65,40,29.90,29.79,0,0,0,0.06
2014-8-15,85,67,58,60,54,46,78,63,37,29.92,29.81,0,0,0,0.25
2014-8-16,77,65,55,59,51,45,84,63,33,29.92,29.86,0,0,0,0.00
2014-8-17,82,67,53,53,47,41,79,52,26,29.94,29.86,0,0,0,0.00
2014-8-18,92,72,56,54,47,39,68,45,21,29.92,29.71,0,0,0,0.00
2014-8-19,89,71,55,52,44,40,61,41,23,29.71,29.58,0,0,0,0.00
2014-8-20,67,63,58,54,50,46,73,64,57,29.77,29.71,0,0,0,0.00
2014-8-21,75,59,52,55,49,46,87,71,42,29.90,29.77,0,0,0,0.01
2014-8-22,66,56,50,51,49,46,92,78,54,29.90,29.83,0,0,0,0.49
2014-8-23,50,47,45,46,43,41,90,86,81,29.92,29.85,0,0,0,0.94
2014-8-24,57,49,43,45,42,40,89,77,61,29.94,29.87,0,0,0,0.23
2014-8-25,74,55,43,48,43,38,86,66,38,29.95,29.83,0,0,0,0.00
2014-8-26,86,63,46,54,47,41,83,60,34,29.96,29.87,0,0,0,0.00
2014-8-27,89,71,56,53,46,41,63,43,26,29.91,29.85,0,0,0,0.00
2014-8-28,89,66,52,55,44,38,75,47,23,29.89,29.76,0,0,0,0.00
2014-8-29,65,55,49,53,47,43,86,76,56,29.91,29.83,0,0,0,0.00
2014-8-31,67,25,49,48,18,39,91,27,37,0.00,40.00,0,0,0,0.01
2014-9-1,76,30,50,45,19,34,60,22,29,0.00,40.00,0,0,0,0.00
2014-9-2,80,28,49,48,18,36,68,20,22,0.00,40.00,0,0,0,0.00
2014-9-3,65,26,50,41,15,27,62,19,25,0.00,40.00,0,0,0,0.00
2014-9-4,-200,0,200,-100,0,200,0,0,100,0.00,40.00,0,0,0,0.00
2014-9-5,-200,0,200,-100,0,200,0,0,100,0.00,40.00,0,0,0,0.00
2014-9-6,84,32,54,43,17,32,56,14,19,0.00,40.00,0,0,0,0.00
2014-9-7,82,48,44,44,25,21,60,28,11,0.00,40.00,0,0,0,0.00
2014-9-8,84,36,44,44,18,19,75,17,11,0.00,40.00,0,0,0,0.00
2014-9-9,52,24,36,40,18,30,82,37,52,0.00,40.00,0,0,0,0.00
2014-9-10,50,22,34,40,19,30,89,45,63,0.00,40.00,0,0,0,0.06
2014-9-11,56,26,32,33,18,24,88,40,39,0.00,40.00,0,0,0,0.00
2014-9-12,70,26,27,36,16,21,85,30,23,0.00,40.00,0,0,0,0.00
2014-9-13,61,27,37,37,18,24,79,31,34,0.00,40.00,0,0,0,0.00
2014-9-14,71,22,36,42,14,29,79,20,26,0.00,40.00,0,0,0,0.00
2014-9-15,81,31,39,47,20,30,74,26,25,0.00,40.00,0,0,0,0.00
2014-9-16,83,31,44,49,20,31,68,22,24,0.00,40.00,0,0,0,0.02
2014-9-17,84,29,50,55,20,37,75,21,23,0.00,40.00,0,0,0,0.00
2014-9-18,75,37,54,58,28,39,80,34,41,0.00,40.00,0,0,0,0.00
2014-9-19,73,30,54,48,21,40,69,24,32,0.00,40.00,0,0,0,0.00
2014-9-20,83,29,47,49,20,38,73,22,28,0.00,40.00,0,0,0,0.00
2014-9-21,83,20,49,49,14,38,71,17,27,0.00,40.00,0,0,0,0.00
2014-9-22,78,27,51,54,21,40,76,25,41,0.00,40.00,0,0,0,0.00
2014-9-23,84,31,48,55,24,41,84,31,30,0.00,40.00,0,0,0,0.00
2014-9-24,92,36,52,52,21,38,77,19,17,0.00,40.00,0,0,0,0.00
2014-9-25,94,34,59,48,17,32,49,12,13,0.00,40.00,0,0,0,0.00
2014-9-26,68,33,56,49,24,36,69,29,33,0.00,40.00,0,0,0,0.07
2014-9-27,56,30,48,48,28,44,91,52,66,0.00,40.00,0,0,0,0.82
2014-9-28,54,24,48,45,20,42,84,35,64,0.00,40.00,0,0,0,0.00
2014-9-29,64,24,41,48,20,38,93,34,54,0.00,40.00,0,0,0,0.02
2014-9-30,57,26,46,49,20,31,88,32,45,0.00,40.00,0,0,0,0.05
2014-10-1,56,23,42,38,16,27,76,27,38,0.00,40.00,0,0,0,0.00
2014-10-2,48,24,30,33,17,24,88,40,48,0.00,40.00,0,0,0,0.00
2014-10-3,60,21,26,40,14,22,84,29,38,0.00,40.00,0,0,0,0.01
2014-10-4,70,26,40,41,17,28,72,23,32,0.00,40.00,0,0,0,0.00
2014-10-5,71,26,50,44,17,35,65,20,30,0.00,40.00,0,0,0,0.00
2014-10-6,74,29,50,45,19,34,59,23,33,0.00,40.00,0,0,0,0.00
2014-10-7,78,29,53,50,19,40,66,20,29,0.00,40.00,0,0,0,0.00
2014-10-8,73,22,43,46,16,36,80,22,34,0.00,40.00,0,0,0,0.00
2014-10-9,64,23,47,44,18,40,77,27,49,0.00,40.00,0,0,0,0.00
2014-10-10,74,26,38,50,19,34,86,27,41,0.00,40.00,0,0,0,0.00
2014-10-11,66,26,44,44,20,34,84,33,36,0.00,40.00,0,0,0,0.03
2014-10-12,53,26,40,38,19,28,81,35,42,0.00,40.00,0,0,0,0.09
2014-10-13,66,26,35,39,18,27,83,30,32,0.00,40.00,0,0,0,0.00
2014-10-14,74,29,42,39,17,27,71,22,25,0.00,40.00,0,0,0,0.00
2014-10-15,76,37,43,41,21,24,69,28,16,0.00,40.00,0,0,0,0.02
2014-10-16,60,22,39,35,14,27,70,25,33,0.00,40.00,0,0,0,0.00
2014-10-17,64,24,30,34,14,23,82,26,27,0.00,40.00,0,0,0,0.00
2014-10-18,67,28,38,41,18,27,72,28,31,0.00,40.00,0,0,0,0.00
2014-10-19,72,28,38,43,19,29,79,29,30,0.00,40.00,0,0,0,0.00
2014-10-20,78,32,38,40,20,28,71,28,22,0.00,40.00,0,0,0,0.00
2014-10-21,67,27,40,46,21,33,88,36,33,0.00,40.00,0,0,0,0.21
2014-10-22,64,26,35,40,19,29,87,34,34,0.00,40.00,0,0,0,0.01
2014-10-23,68,26,45,42,17,31,76,23,32,0.00,40.00,0,0,0,0.00
2014-10-24,55,23,41,42,18,35,81,34,60,0.00,40.00,0,0,0,0.00
2014-10-25,67,26,36,48,22,34,94,39,44,0.00,40.00,0,0,0,0.00
2014-10-26,59,28,36,39,18,23,79,33,36,0.00,40.00,0,0,0,0.04
2014-10-27,48,25,34,26,15,22,66,31,38,0.00,40.00,0,0,0,0.00
2014-10-28,56,21,26,30,13,18,76,31,32,0.00,40.00,0,0,0,0.00
2014-10-29,57,21,41,36,14,28,67,25,41,0.00,40.00,0,0,0,0.00
2014-10-30,59,21,34,37,15,28,78,28,38,0.00,40.00,0,0,0,0.00
2014-10-31,66,28,37,40,19,28,77,32,35,0.00,40.00,0,0,0,0.00
2014-11-1,64,28,36,41,20,28,91,35,36,0.00,40.00,0,0,0,0.18
2014-11-2,44,18,33,37,14,21,93,33,55,0.00,40.00,0,0,0,0.03
2014-11-3,47,17,29,31,12,20,74,29,51,0.00,40.00,0,0,0,0.00
2014-11-4,52,19,33,36,14,28,82,30,47,0.00,40.00,0,0,0,0.00
2014-11-5,54,22,42,37,16,31,72,26,46,0.00,40.00,0,0,0,0.00
2014-11-6,61,23,39,40,16,32,78,27,37,0.00,40.00,0,0,0,0.00
2014-11-7,54,21,35,41,14,27,73,26,42,0.00,40.00,0,0,0,0.00
2014-11-8,55,18,31,34,12,25,81,26,41,0.00,40.00,0,0,0,0.00
2014-11-9,56,23,14,41,17,6,89,42,49,0.00,40.00,0,0,0,0.08
2014-11-10,18,8,4,13,3,-4,83,47,59,0.00,40.00,0,0,0,0.00
2014-11-11,6,1,-4,-2,-3,-11,74,36,56,0.00,40.00,0,0,0,0.00
2014-11-12,21,3,-4,6,-3,-12,78,38,48,30.05,30.02,0,0,0,0.00
2014-11-13,22,5,-8,8,-3,-14,80,68,51,30.02,29.69,0,0,0,0.00
2014-11-14,12,7,2,2,-1,-4,82,70,54,29.82,29.67,0,0,0,0.00
2014-11-15,21,8,-1,6,-2,-8,76,64,50,30.00,29.82,0,0,0,0.00
2014-11-16,30,13,0,14,4,-6,78,67,46,30.11,29.98,0,0,0,0.00
2014-11-17,32,14,2,16,5,-4,78,68,47,30.08,29.91,0,0,0,0.00
2014-11-18,30,19,10,19,12,4,79,72,62,29.91,29.82,0,0,0,0.00
2014-11-19,42,24,12,27,15,7,84,72,51,29.84,29.69,0,0,0,0.00
2014-11-20,44,32,20,28,22,13,78,67,48,29.70,29.61,0,0,0,0.00
2014-11-21,44,36,28,29,25,20,81,65,49,29.65,29.32,0,0,0,0.00
2014-11-22,52,40,34,34,24,15,80,55,35,30.18,29.18,54,13,54,0.01
2014-11-23,41,35,30,25,20,17,74,54,42,30.41,30.17,36,15,36,0.00
2014-11-24,39,34,31,22,18,14,63,52,39,30.58,30.31,38,13,38,0.00
2014-11-25,35,32,29,32,27,19,92,82,56,30.54,30.31,20,3,20,0.05
2014-11-26,40,31,25,34,27,21,90,86,75,30.54,30.46,8,2,8,0.02
2014-11-27,54,43,27,37,32,24,90,65,46,30.47,30.23,26,7,26,0.04
2014-11-28,54,49,44,35,30,24,68,49,37,30.24,29.83,42,15,44,0.00
2014-11-29,47,2,-6,29,-4,-13,83,75,44,30.35,29.81,39,15,42,0.00
2014-11-30,19,3,-6,12,-2,-12,80,77,69,30.59,30.35,10,3,10,0.00
2014-12-1,19,6,-4,12,0,-9,85,77,61,30.56,30.30,14,3,14,0.00
2014-12-2,39,28,18,25,18,9,84,65,50,30.48,30.36,19,6,19,0.00
2014-12-3,25,21,14,18,14,8,81,73,65,30.45,30.28,6,2,6,0.00
2014-12-4,38,33,24,33,27,17,87,80,73,30.42,30.24,9,3,9,0.01
2014-12-5,42,35,29,35,30,25,89,83,74,30.58,30.42,8,3,8,0.00
2014-12-6,46,36,28,36,30,24,89,78,50,30.57,30.44,32,6,32,0.01
2014-12-7,54,40,29,35,27,20,80,62,45,30.69,30.52,20,5,20,0.00
2014-12-8,44,32,27,32,24,19,80,72,60,30.66,30.55,11,3,11,0.00
2014-12-9,50,37,29,36,29,24,83,73,54,30.56,30.45,10,4,10,0.00
2014-12-10,46,39,32,34,30,26,83,71,62,30.49,30.22,23,7,23,0.00
2014-12-11,50,45,40,31,28,26,63,51,42,30.23,30.14,24,9,24,0.00
2014-12-12,58,46,38,36,30,27,70,54,36,30.21,30.13,20,8,26,0.00
2014-12-13,43,37,32,33,30,27,92,75,56,30.46,30.16,22,11,26,0.00
2014-12-14,32,29,26,27,24,20,87,83,78,30.60,30.45,27,16,27,0.00
2014-12-15,34,24,16,26,18,11,84,77,68,30.61,30.48,15,5,15,0.00
2014-12-16,28,22,15,24,18,10,89,83,75,30.48,30.37,7,2,7,0.00
2014-12-17,40,27,20,32,23,16,91,85,69,30.39,30.32,10,2,10,0.07
2014-12-18,36,27,21,28,22,17,90,81,68,30.44,30.38,11,3,11,0.00
2014-12-19,41,32,25,30,26,20,89,77,62,30.39,30.29,24,3,24,0.01
2014-12-20,38,33,28,29,25,19,81,72,57,30.38,30.08,29,6,29,0.00
2014-12-21,44,38,33,33,27,22,86,66,52,30.21,29.93,40,16,45,0.04
2014-12-22,40,35,29,27,23,20,76,61,52,30.58,30.18,37,16,37,0.00
2014-12-23,39,31,24,24,20,16,76,64,50,30.67,30.34,20,5,20,0.00
2014-12-24,41,34,29,30,26,22,90,72,53,30.34,29.89,26,9,26,0.00
2014-12-25,30,23,14,25,16,8,87,76,64,30.39,30.00,23,11,23,0.00
2014-12-26,26,17,10,19,12,5,86,81,72,30.52,30.38,13,3,13,0.00
2014-12-27,28,19,9,23,14,4,87,79,67,30.51,30.26,7,2,7,0.00
2014-12-28,25,18,10,22,13,4,89,82,75,30.64,30.23,33,14,33,0.00
2014-12-29,10,3,-7,4,-4,-13,80,74,66,30.98,30.64,25,15,25,0.00
2014-12-30,5,-5,-13,-6,-13,-19,75,70,59,31.00,30.84,18,6,18,0.00
2014-12-31,17,3,-4,5,-5,-10,76,69,51,30.85,30.59,8,3,8,0.00
2015-1-1,23,7,-2,10,-1,-8,78,69,54,30.59,30.46,8,2,8,0.00
2015-1-2,25,14,2,18,8,-4,88,77,64,30.47,30.23,33,3,33,0.00